TimeCDT,TemperatureF,Dew PointF,Humidity,Sea Level PressureIn,VisibilityMPH,Wind Direction,Wind SpeedMPH,Gust SpeedMPH,PrecipitationIn,Events,Conditions,WindDirDegrees,DateUTC
12:54 AM,61.0,57.9,90,29.84,10.0,North,5.8,-,N/A,,Clear,360,2013-06-13 05:54:00
1:54 AM,61.0,59.0,93,29.86,10.0,North,5.8,-,N/A,,Mostly Cloudy,360,2013-06-13 06:54:00
2:54 AM,61.0,57.0,87,29.87,10.0,North,5.8,-,N/A,,Clear,360,2013-06-13 07:54:00
3:54 AM,59.0,54.0,83,29.88,10.0,North,9.2,-,N/A,,Clear,350,2013-06-13 08:54:00
4:54 AM,57.9,51.1,78,29.92,10.0,North,9.2,-,N/A,,Clear,360,2013-06-13 09:54:00
5:54 AM,57.9,50.0,75,29.95,10.0,North,6.9,-,N/A,,Clear,10,2013-06-13 10:54:00
6:54 AM,60.1,51.1,72,29.96,10.0,NNE,9.2,-,N/A,,Clear,20,2013-06-13 11:54:00
7:54 AM,62.1,52.0,70,29.98,10.0,North,11.5,-,N/A,,Clear,10,2013-06-13 12:54:00
8:54 AM,64.9,53.1,65,30.00,10.0,NE,13.8,18.4,N/A,,Clear,40,2013-06-13 13:54:00
9:54 AM,68.0,54.0,61,30.00,10.0,North,11.5,16.1,N/A,,Clear,360,2013-06-13 14:54:00
10:54 AM,69.1,54.0,58,30.00,10.0,North,11.5,19.6,N/A,,Partly Cloudy,360,2013-06-13 15:54:00
11:54 AM,68.0,54.0,61,30.03,10.0,NNE,10.4,-,N/A,,Mostly Cloudy,20,2013-06-13 16:54:00
12:54 PM,71.1,54.0,55,30.04,10.0,North,12.7,19.6,N/A,,Partly Cloudy,350,2013-06-13 17:54:00
1:54 PM,73.0,54.0,51,30.05,10.0,NNW,8.1,-,N/A,,Scattered Clouds,340,2013-06-13 18:54:00
2:54 PM,72.0,53.1,51,30.05,10.0,North,13.8,21.9,N/A,,Mostly Cloudy,360,2013-06-13 19:54:00
3:54 PM,75.0,53.1,46,30.04,10.0,North,9.2,20.7,N/A,,Mostly Cloudy,350,2013-06-13 20:54:00
4:54 PM,75.9,50.0,40,30.04,10.0,NE,9.2,18.4,N/A,,Clear,40,2013-06-13 21:54:00
5:54 PM,73.9,50.0,43,30.04,10.0,NE,10.4,16.1,N/A,,Clear,40,2013-06-13 22:54:00
6:54 PM,73.0,50.0,44,30.04,10.0,ENE,10.4,-,N/A,,Clear,60,2013-06-13 23:54:00
7:54 PM,71.1,50.0,47,30.05,10.0,NE,5.8,-,N/A,,Clear,40,2013-06-14 00:54:00
8:54 PM,66.9,51.1,57,30.06,10.0,NNE,5.8,-,N/A,,Clear,30,2013-06-14 01:54:00
9:54 PM,64.0,52.0,65,30.08,10.0,NE,6.9,-,N/A,,Clear,50,2013-06-14 02:54:00
10:54 PM,61.0,52.0,72,30.09,10.0,ENE,5.8,-,N/A,,Clear,60,2013-06-14 03:54:00
11:54 PM,57.9,51.1,78,30.11,10.0,ENE,8.1,-,N/A,,Clear,60,2013-06-14 04:54:00